[[{"header":{"parameterUnit":"m.s-1","parameterCategory":1,"la1":30.2992,"la2":30.254,"lo1":-89.0895,"lo2":-89.0443,"dy":0.0025,"dx":0.0025,"nx":19,"ny":19,"refTime":"2026-04-21T09:00:00:Z","depth":0,"parameterNumber":2,"parameterNumberName":"U-component_of_WINDS"},"data":[0,0,0,-2.684,-2.6843,-2.6972,-2.6972,-2.7147,-2.7149,0,0,0,0,0,0,0,0,0,0,0,-2.681,-2.6812,-2.684,-2.6844,-2.6972,-2.6972,-2.7147,-2.7149,0,0,0,0,0,0,0,0,0,0,0,-2.6809,-2.6811,-2.6813,-2.6844,-2.6972,-2.6972,-2.7146,-2.7045,0,0,0,0,0,0,0,0,0,0,-2.6918,-2.6899,-2.6811,-2.6813,-2.6845,-2.6972,-2.6972,-2.704,-2.7052,-2.7094,0,-2.7135,0,-2.7145,-2.7161,-2.7162,0,0,0,-2.6837,-2.6889,-2.6917,-2.6813,-2.6846,-2.6972,-2.6912,-2.7046,-2.7059,-2.7109,-2.7137,-2.7143,-2.7148,-2.7162,-2.7163,-2.7431,-2.7433,0,0,-2.683,-2.6837,-2.6908,-2.6926,-2.6909,-2.6908,-2.6916,-2.7054,-2.7085,-2.7138,-2.7147,-2.715,-2.7164,-2.7165,-2.743,-2.7432,0,0,0,-2.6814,-2.6833,-2.6856,-2.6919,-2.6942,-2.6912,-2.6921,-2.7079,-2.7086,-2.7149,-2.7153,-2.7165,-2.7167,-2.7428,-2.7431,-2.7515,0,0,0,-2.6809,-2.6823,-2.6854,-2.6859,-2.6939,-2.7012,-2.6943,-2.7076,-2.7092,-2.7152,-2.7165,-2.7169,-2.7426,-2.7429,-2.7509,-2.7553,0,0,0,-2.6799,-2.6822,-2.6843,-2.6859,-2.6915,-2.701,-2.7025,-2.7079,-2.7094,-2.7162,-2.7169,-2.7425,-2.7429,-2.7504,-2.7545,-2.7626,0,0,0,-2.679,-2.6916,-2.6845,-2.6987,-2.6914,-2.7061,-2.7024,-2.7133,-2.7201,-2.7166,-2.7427,-2.743,-2.7502,-2.7539,-2.7621,-2.7696,-2.7729,0,0,-2.6953,-2.6936,-2.7019,-2.6959,-2.7121,-2.7041,-2.7215,-2.727,-2.7268,-2.7377,-2.7383,-2.7511,-2.7544,-2.7625,-2.7907,-2.7933,0,0,0,-2.7073,-2.7133,-2.7174,-2.724,-2.7286,-2.7328,-2.7356,-2.7376,-2.7468,-2.7326,-2.7562,-2.7582,-2.7629,-2.7665,-2.7687,-2.7726,-2.7447,-2.7447,-2.7446,-2.7314,-2.7307,-2.7444,-2.7452,-2.7517,-2.7544,-2.7595,-2.7626,-2.7599,-2.7655,-2.7687,-2.786,-2.7902,-2.7919,-2.796,-2.7727,-2.7727,-2.7727,-2.7728,-2.7553,-2.7636,-2.7598,-2.7717,-2.7708,-2.7808,-2.7838,-2.7816,-2.7906,-2.7835,-2.7876,-2.7799,-2.7947,-2.7983,-2.7734,-2.7733,-2.7732,-2.7731,-2.7731,-2.771,-2.7749,-2.7772,-2.7866,-2.794,-2.7943,-2.8032,-2.802,-2.8009,-2.805,-2.8082,-2.8081,-2.8078,-2.8066,-2.8067,-2.8067,-2.8068,-2.8068,-2.8069,-2.7864,-2.7888,-2.7965,-2.8024,-2.8065,-2.8116,-2.8145,-2.8184,-2.8224,-2.8208,-2.8208,-2.8175,-2.7963,-2.791,-2.8078,-2.8076,-2.8075,-2.8074,-2.8074,-2.8109,-2.8052,-2.8171,-2.8212,-2.828,-2.8353,-2.8337,-2.8417,-2.8448,-2.8492,-2.845,-2.8295,-2.8276,-2.8259,-2.8215,-2.8452,-2.8452,-2.8452,-2.8452,-2.8242,-2.8232,-2.8351,-2.8417,-2.848,-2.8477,-2.861,-2.8633,-2.8647,-2.8665,-2.8629,-2.8569,-2.8552,-2.8544,-2.852,-2.8479,-2.8777,-2.8778,-2.8778,-2.8392,-2.8387,-2.8504,-2.8518,-2.857,-2.8615,-2.874,-2.8815,-2.8819,-2.8791,-2.8679,-2.8665,-2.8569,-2.8538,-2.8507,-2.8471,-2.8395,0,0]},{"header":{"parameterUnit":"m.s-1","parameterCategory":1,"la1":30.2992,"la2":30.254,"lo1":-89.0895,"lo2":-89.0443,"dy":0.0025,"dx":0.0025,"nx":19,"ny":19,"refTime":"2026-04-21T09:00:00:Z","depth":0,"parameterNumber":3,"parameterNumberName":"V-component_of_WINDS"},"data":[0,0,0,-3.0962,-3.0964,-3.1045,-3.1045,-3.1149,-3.115,0,0,0,0,0,0,0,0,0,0,0,-3.0942,-3.0943,-3.0962,-3.0964,-3.1044,-3.1045,-3.1149,-3.115,0,0,0,0,0,0,0,0,0,0,0,-3.0942,-3.0943,-3.0944,-3.0965,-3.1044,-3.1045,-3.1149,-3.1087,0,0,0,0,0,0,0,0,0,0,-3.1008,-3.0995,-3.0943,-3.0944,-3.0965,-3.1044,-3.1045,-3.1084,-3.1091,-3.1114,0,-3.1139,0,-3.1147,-3.1158,-3.1158,0,0,0,-3.0961,-3.0989,-3.1007,-3.0944,-3.0966,-3.1044,-3.1007,-3.1088,-3.1095,-3.1124,-3.1141,-3.1144,-3.1148,-3.1158,-3.1159,-3.1314,-3.1315,0,0,-3.0956,-3.0959,-3.1002,-3.1013,-3.1004,-3.1005,-3.101,-3.1092,-3.111,-3.1141,-3.1147,-3.115,-3.1159,-3.116,-3.1313,-3.1314,0,0,0,-3.0946,-3.0956,-3.0972,-3.1009,-3.1023,-3.1007,-3.1013,-3.1106,-3.1111,-3.1148,-3.1151,-3.116,-3.1161,-3.1312,-3.1313,-3.136,0,0,0,-3.0943,-3.095,-3.097,-3.0972,-3.1022,-3.1066,-3.1025,-3.1106,-3.1115,-3.1151,-3.116,-3.1162,-3.1311,-3.1313,-3.1357,-3.1382,0,0,0,-3.0936,-3.0949,-3.0962,-3.0972,-3.1007,-3.1065,-3.1075,-3.1108,-3.1117,-3.1158,-3.1162,-3.131,-3.1312,-3.1354,-3.1377,-3.1423,0,0,0,-3.0928,-3.1002,-3.0963,-3.1046,-3.1007,-3.1095,-3.1074,-3.1139,-3.118,-3.116,-3.1311,-3.1313,-3.1353,-3.1374,-3.142,-3.1462,-3.148,0,0,-3.1023,-3.1014,-3.1063,-3.103,-3.1126,-3.1082,-3.1184,-3.1217,-3.1218,-3.1281,-3.1285,-3.1358,-3.1376,-3.1422,-3.1581,-3.1596,0,0,0,-3.1093,-3.1129,-3.1153,-3.1193,-3.1222,-3.1248,-3.1266,-3.1278,-3.1332,-3.1252,-3.1387,-3.1398,-3.1425,-3.1444,-3.1457,-3.1479,-3.1323,-3.1322,-3.1322,-3.1231,-3.1229,-3.1309,-3.1316,-3.1355,-3.1373,-3.1402,-3.1421,-3.1407,-3.1439,-3.1458,-3.1555,-3.1578,-3.1587,-3.161,-3.148,-3.148,-3.1481,-3.1481,-3.1368,-3.1417,-3.1397,-3.1468,-3.1464,-3.1522,-3.1541,-3.1529,-3.1581,-3.1541,-3.1564,-3.152,-3.1603,-3.1623,-3.1484,-3.1484,-3.1483,-3.1483,-3.1483,-3.1457,-3.148,-3.1495,-3.1552,-3.1595,-3.1598,-3.1649,-3.1644,-3.1638,-3.1661,-3.1679,-3.1678,-3.1676,-3.167,-3.1671,-3.1671,-3.1671,-3.1672,-3.1672,-3.1544,-3.1559,-3.1604,-3.164,-3.1664,-3.1695,-3.1712,-3.1735,-3.1758,-3.1749,-3.175,-3.1731,-3.1613,-3.1583,-3.1677,-3.1676,-3.1675,-3.1675,-3.1675,-3.1683,-3.1651,-3.172,-3.1745,-3.1785,-3.1827,-3.182,-3.1866,-3.1883,-3.1908,-3.1885,-3.1798,-3.1788,-3.1778,-3.1753,-3.1886,-3.1886,-3.1886,-3.1886,-3.1758,-3.1753,-3.1822,-3.186,-3.1897,-3.1897,-3.1973,-3.1986,-3.1994,-3.2004,-3.1984,-3.1951,-3.1941,-3.1936,-3.1923,-3.1899,-3.2067,-3.2067,-3.2067,-3.1843,-3.1841,-3.1908,-3.1917,-3.1948,-3.1974,-3.2045,-3.2087,-3.209,-3.2074,-3.2012,-3.2004,-3.195,-3.1933,-3.1915,-3.1895,-3.1852,0,0]}]]